Time,TemperatureF,DewpointF,PressureIn,WindDirection,WindDirectionDegrees,WindSpeedMPH,WindSpeedGustMPH,Humidity,HourlyPrecipIn,Conditions,Clouds,dailyrainin,SoftwareType,DateUTC
2013-02-26 00:09:00,21.0,20.0,30.07,ENE,63,13.0,13.0,95,0.00,,,0.00,weatherlink.com 1.10,2013-02-26 06:09:00,
2013-02-26 00:24:00,21.0,20.0,30.06,NE,56,8.0,12.0,95,0.00,,,0.00,weatherlink.com 1.10,2013-02-26 06:24:00,
2013-02-26 00:39:00,21.1,20.0,30.06,ENE,67,7.0,11.0,95,0.00,,,0.00,weatherlink.com 1.10,2013-02-26 06:39:00,
2013-02-26 00:54:00,21.0,20.0,30.06,NNE,30,6.0,8.0,95,0.00,,,0.00,weatherlink.com 1.10,2013-02-26 06:54:00,
2013-02-26 01:09:00,21.0,20.0,30.05,ENE,63,6.0,13.0,95,0.00,,,0.00,weatherlink.com 1.10,2013-02-26 07:09:00,
2013-02-26 01:24:00,21.1,20.0,30.05,NE,51,9.0,10.0,95,0.00,,,0.00,weatherlink.com 1.10,2013-02-26 07:24:00,
2013-02-26 01:39:00,21.1,20.0,30.05,NE,46,7.0,12.0,95,0.00,,,0.00,weatherlink.com 1.10,2013-02-26 07:39:00,
2013-02-26 01:54:00,21.1,20.0,30.05,NE,44,8.0,12.0,95,0.00,,,0.00,weatherlink.com 1.10,2013-02-26 07:54:00,
2013-02-26 02:09:00,21.1,20.0,30.04,NE,42,7.0,10.0,95,0.00,,,0.00,weatherlink.com 1.10,2013-02-26 08:09:00,
2013-02-26 02:24:00,21.4,20.0,30.03,NE,48,7.0,9.0,95,0.00,,,0.00,weatherlink.com 1.10,2013-02-26 08:24:00,
2013-02-26 02:39:00,21.9,21.0,30.02,NE,37,10.0,11.0,95,0.00,,,0.00,weatherlink.com 1.10,2013-02-26 08:39:00,
2013-02-26 02:54:00,22.1,21.0,30.03,NE,49,12.0,13.0,95,0.00,,,0.00,weatherlink.com 1.10,2013-02-26 08:54:00,
2013-02-26 03:09:00,22.1,21.0,30.03,NE,54,10.0,11.0,95,0.00,,,0.00,weatherlink.com 1.10,2013-02-26 09:09:00,
2013-02-26 03:24:00,22.2,21.0,30.02,NE,42,11.0,14.0,95,0.00,,,0.00,weatherlink.com 1.10,2013-02-26 09:24:00,
2013-02-26 03:39:00,22.2,21.0,30.01,NE,36,8.0,11.0,95,0.00,,,0.00,weatherlink.com 1.10,2013-02-26 09:39:00,
2013-02-26 03:55:00,22.2,21.0,29.99,NE,52,8.0,15.0,95,0.00,,,0.00,weatherlink.com 1.10,2013-02-26 09:55:00,
2013-02-26 04:10:00,22.2,21.0,29.99,NE,40,6.0,14.0,95,0.00,,,0.00,weatherlink.com 1.10,2013-02-26 10:10:00,
2013-02-26 04:25:00,22.3,21.0,29.99,North,1,11.0,12.0,95,0.00,,,0.00,weatherlink.com 1.10,2013-02-26 10:25:00,
2013-02-26 04:40:00,22.2,21.0,29.99,NNE,19,9.0,13.0,95,0.00,,,0.00,weatherlink.com 1.10,2013-02-26 10:40:00,
2013-02-26 04:55:00,22.1,21.0,29.98,NNE,13,12.0,13.0,95,0.00,,,0.00,weatherlink.com 1.10,2013-02-26 10:55:00,
2013-02-26 05:10:00,22.0,21.0,29.98,NNW,328,12.0,14.0,95,0.00,,,0.00,weatherlink.com 1.10,2013-02-26 11:10:00,
2013-02-26 05:25:00,21.8,21.0,29.98,NNE,22,7.0,12.0,95,0.00,,,0.00,weatherlink.com 1.10,2013-02-26 11:25:00,
2013-02-26 05:40:00,21.9,21.0,29.98,NW,323,3.0,9.0,95,0.00,,,0.00,weatherlink.com 1.10,2013-02-26 11:40:00,
2013-02-26 05:55:00,22.1,21.0,29.99,NNE,29,6.0,11.0,95,0.00,,,0.00,weatherlink.com 1.10,2013-02-26 11:55:00,
2013-02-26 06:10:00,22.4,21.0,29.99,NNE,12,6.0,9.0,95,0.00,,,0.00,weatherlink.com 1.10,2013-02-26 12:10:00,
2013-02-26 06:25:00,22.8,22.0,29.98,NNE,17,9.0,13.0,96,0.00,,,0.00,weatherlink.com 1.10,2013-02-26 12:25:00,
2013-02-26 06:40:00,23.2,22.0,29.97,North,354,9.0,14.0,96,0.00,,,0.00,weatherlink.com 1.10,2013-02-26 12:40:00,
2013-02-26 06:55:00,22.8,22.0,29.97,NNW,342,5.0,11.0,95,0.00,,,0.00,weatherlink.com 1.10,2013-02-26 12:55:00,
2013-02-26 07:10:00,22.8,22.0,29.97,North,9,6.0,10.0,95,0.00,,,0.00,weatherlink.com 1.10,2013-02-26 13:10:00,
2013-02-26 07:25:00,23.1,22.0,29.98,NE,36,9.0,11.0,95,0.00,,,0.00,weatherlink.com 1.10,2013-02-26 13:25:00,
2013-02-26 07:40:00,23.0,22.0,29.97,NNE,21,7.0,11.0,95,0.00,,,0.00,weatherlink.com 1.10,2013-02-26 13:40:00,
2013-02-26 07:55:00,22.9,22.0,29.97,NNE,30,8.0,11.0,95,0.00,,,0.00,weatherlink.com 1.10,2013-02-26 13:55:00,
2013-02-26 08:10:00,22.8,22.0,29.98,North,11,7.0,12.0,95,0.00,,,0.00,weatherlink.com 1.10,2013-02-26 14:10:00,
2013-02-26 08:25:00,22.7,22.0,29.98,North,9,7.0,11.0,95,0.00,,,0.00,weatherlink.com 1.10,2013-02-26 14:25:00,
2013-02-26 08:40:00,22.8,22.0,29.98,NNE,23,8.0,11.0,95,0.00,,,0.00,weatherlink.com 1.10,2013-02-26 14:40:00,
2013-02-26 08:55:00,23.0,22.0,29.98,NNE,18,8.0,13.0,95,0.00,,,0.00,weatherlink.com 1.10,2013-02-26 14:55:00,
2013-02-26 09:10:00,23.0,22.0,29.98,NNE,27,13.0,15.0,95,0.00,,,0.00,weatherlink.com 1.10,2013-02-26 15:10:00,
2013-02-26 09:25:00,22.9,22.0,29.99,NE,36,6.0,16.0,94,0.00,,,0.00,weatherlink.com 1.10,2013-02-26 15:25:00,
2013-02-26 09:40:00,22.8,22.0,29.99,North,8,8.0,15.0,95,0.00,,,0.00,weatherlink.com 1.10,2013-02-26 15:40:00,
2013-02-26 09:55:00,23.2,22.0,29.99,NNE,25,13.0,18.0,95,0.00,,,0.00,weatherlink.com 1.10,2013-02-26 15:55:00,
2013-02-26 10:10:00,23.8,23.0,29.99,NE,42,11.0,19.0,95,0.00,,,0.00,weatherlink.com 1.10,2013-02-26 16:10:00,
2013-02-26 10:25:00,24.1,23.0,29.99,NNE,22,10.0,17.0,95,0.00,,,0.00,weatherlink.com 1.10,2013-02-26 16:25:00,
2013-02-26 10:40:00,24.7,23.0,29.99,NE,39,11.0,16.0,94,0.00,,,0.00,weatherlink.com 1.10,2013-02-26 16:40:00,
2013-02-26 10:55:00,25.6,24.0,29.98,NNE,20,8.0,15.0,93,0.00,,,0.00,weatherlink.com 1.10,2013-02-26 16:55:00,
2013-02-26 11:10:00,26.6,24.0,29.98,North,357,10.0,17.0,88,0.00,,,0.00,weatherlink.com 1.10,2013-02-26 17:10:00,
2013-02-26 11:25:00,27.4,24.0,29.97,North,350,14.0,18.0,87,0.00,,,0.00,weatherlink.com 1.10,2013-02-26 17:25:00,
2013-02-26 11:40:00,27.8,24.0,29.96,NNW,335,10.0,19.0,86,0.00,,,0.00,weatherlink.com 1.10,2013-02-26 17:40:00,
2013-02-26 11:55:00,28.5,25.0,29.97,NE,39,13.0,19.0,85,0.00,,,0.00,weatherlink.com 1.10,2013-02-26 17:55:00,
2013-02-26 12:10:00,28.9,25.0,29.96,NNW,340,8.0,15.0,84,0.00,,,0.00,weatherlink.com 1.10,2013-02-26 18:10:00,
2013-02-26 12:25:00,29.2,25.0,29.95,NW,319,9.0,16.0,84,0.00,,,0.00,weatherlink.com 1.10,2013-02-26 18:25:00,
2013-02-26 12:40:00,29.9,25.0,29.95,NW,309,5.0,15.0,83,0.00,,,0.00,weatherlink.com 1.10,2013-02-26 18:40:00,
2013-02-26 12:55:00,30.0,25.0,29.94,North,8,9.0,14.0,82,0.00,,,0.00,weatherlink.com 1.10,2013-02-26 18:55:00,
2013-02-26 13:10:00,30.0,25.0,29.94,NNE,18,9.0,15.0,83,0.00,,,0.00,weatherlink.com 1.10,2013-02-26 19:10:00,
2013-02-26 13:25:00,30.0,25.0,29.93,NNW,348,8.0,15.0,83,0.00,,,0.00,weatherlink.com 1.10,2013-02-26 19:25:00,
2013-02-26 13:40:00,30.2,26.0,29.92,NNE,33,7.0,17.0,83,0.00,,,0.00,weatherlink.com 1.10,2013-02-26 19:40:00,
2013-02-26 13:56:00,30.4,26.0,29.92,NNE,16,10.0,18.0,83,0.00,,,0.00,weatherlink.com 1.10,2013-02-26 19:56:00,
2013-02-26 14:11:00,30.1,26.0,29.91,NNW,336,9.0,16.0,83,0.00,,,0.00,weatherlink.com 1.10,2013-02-26 20:11:00,
2013-02-26 14:26:00,29.8,26.0,29.91,North,352,8.0,18.0,84,0.00,,,0.00,weatherlink.com 1.10,2013-02-26 20:26:00,
2013-02-26 14:41:00,29.8,26.0,29.91,NNE,13,8.0,15.0,84,0.00,,,0.00,weatherlink.com 1.10,2013-02-26 20:41:00,
2013-02-26 14:56:00,30.0,26.0,29.90,North,357,12.0,16.0,84,0.00,,,0.00,weatherlink.com 1.10,2013-02-26 20:56:00,
2013-02-26 15:11:00,29.6,25.0,29.90,NNE,26,16.0,17.0,84,0.00,,,0.00,weatherlink.com 1.10,2013-02-26 21:11:00,
2013-02-26 15:26:00,29.6,25.0,29.91,North,6,14.0,19.0,84,0.00,,,0.00,weatherlink.com 1.10,2013-02-26 21:26:00,
2013-02-26 15:41:00,29.1,25.0,29.91,NNW,347,11.0,20.0,84,0.00,,,0.00,weatherlink.com 1.10,2013-02-26 21:41:00,
2013-02-26 15:56:00,28.8,25.0,29.91,NNE,13,12.0,18.0,85,0.00,,,0.00,weatherlink.com 1.10,2013-02-26 21:56:00,
2013-02-26 16:11:00,28.3,25.0,29.91,NE,39,6.0,19.0,86,0.00,,,0.00,weatherlink.com 1.10,2013-02-26 22:11:00,
2013-02-26 16:26:00,27.8,24.0,29.90,North,11,20.0,20.0,86,0.00,,,0.00,weatherlink.com 1.10,2013-02-26 22:26:00,
2013-02-26 16:41:00,27.0,24.0,29.90,North,3,11.0,19.0,87,0.00,,,0.00,weatherlink.com 1.10,2013-02-26 22:41:00,
2013-02-26 16:56:00,26.5,23.0,29.90,NNW,327,10.0,19.0,88,0.00,,,0.00,weatherlink.com 1.10,2013-02-26 22:56:00,
2013-02-26 17:11:00,26.1,23.0,29.91,North,6,15.0,17.0,89,0.00,,,0.00,weatherlink.com 1.10,2013-02-26 23:11:00,
2013-02-26 17:26:00,25.7,23.0,29.91,NNW,333,13.0,19.0,89,0.00,,,0.00,weatherlink.com 1.10,2013-02-26 23:26:00,
2013-02-26 17:41:00,25.3,23.0,29.92,NE,54,21.0,21.0,90,0.00,,,0.00,weatherlink.com 1.10,2013-02-26 23:41:00,
2013-02-26 17:56:00,25.1,23.0,29.92,NNW,347,8.0,20.0,90,0.00,,,0.00,weatherlink.com 1.10,2013-02-26 23:56:00,
2013-02-26 18:11:00,24.8,22.0,29.93,NNW,337,7.0,20.0,90,0.00,,,0.00,weatherlink.com 1.10,2013-02-27 00:11:00,
2013-02-26 18:26:00,24.6,22.0,29.94,NNE,23,7.0,17.0,91,0.00,,,0.00,weatherlink.com 1.10,2013-02-27 00:26:00,
2013-02-26 18:41:00,24.7,23.0,29.94,North,357,9.0,18.0,92,0.00,,,0.00,weatherlink.com 1.10,2013-02-27 00:41:00,
2013-02-26 18:56:00,24.8,23.0,29.94,North,359,12.0,17.0,92,0.00,,,0.00,weatherlink.com 1.10,2013-02-27 00:56:00,
2013-02-26 19:11:00,25.1,23.0,29.94,North,1,15.0,20.0,92,0.00,,,0.00,weatherlink.com 1.10,2013-02-27 01:11:00,
2013-02-26 19:26:00,25.3,23.0,29.94,NNW,335,12.0,18.0,91,0.00,,,0.00,weatherlink.com 1.10,2013-02-27 01:26:00,
2013-02-26 19:41:00,25.4,23.0,29.94,North,1,10.0,20.0,91,0.00,,,0.00,weatherlink.com 1.10,2013-02-27 01:41:00,
2013-02-26 19:56:00,25.3,23.0,29.94,NW,312,6.0,20.0,91,0.00,,,0.00,weatherlink.com 1.10,2013-02-27 01:56:00,
2013-02-26 20:11:00,25.3,23.0,29.95,NNW,342,8.0,16.0,91,0.00,,,0.00,weatherlink.com 1.10,2013-02-27 02:11:00,
2013-02-26 20:26:00,25.0,23.0,29.95,NNW,335,9.0,18.0,91,0.00,,,0.00,weatherlink.com 1.10,2013-02-27 02:26:00,
2013-02-26 20:41:00,24.7,23.0,29.95,NE,42,9.0,18.0,91,0.00,,,0.00,weatherlink.com 1.10,2013-02-27 02:41:00,
2013-02-26 20:56:00,24.7,23.0,29.95,NNW,328,11.0,18.0,91,0.00,,,0.00,weatherlink.com 1.10,2013-02-27 02:56:00,
2013-02-26 21:11:00,24.3,22.0,29.95,NNW,327,12.0,17.0,92,0.00,,,0.00,weatherlink.com 1.10,2013-02-27 03:11:00,
2013-02-26 21:26:00,24.1,22.0,29.95,NNW,340,13.0,18.0,92,0.00,,,0.00,weatherlink.com 1.10,2013-02-27 03:26:00,
2013-02-26 21:41:00,23.8,22.0,29.95,NW,316,11.0,17.0,92,0.00,,,0.00,weatherlink.com 1.10,2013-02-27 03:41:00,
2013-02-26 21:56:00,23.6,22.0,29.95,NW,326,8.0,17.0,92,0.00,,,0.00,weatherlink.com 1.10,2013-02-27 03:56:00,
2013-02-26 22:11:00,23.3,21.0,29.95,NNW,342,5.0,15.0,92,0.00,,,0.00,weatherlink.com 1.10,2013-02-27 04:11:00,
2013-02-26 22:26:00,22.9,21.0,29.95,NNW,339,12.0,16.0,92,0.00,,,0.00,weatherlink.com 1.10,2013-02-27 04:26:00,
2013-02-26 22:41:00,22.6,21.0,29.95,NW,316,13.0,16.0,93,0.00,,,0.00,weatherlink.com 1.10,2013-02-27 04:41:00,
2013-02-26 22:56:00,22.4,21.0,29.95,NNW,333,12.0,20.0,93,0.00,,,0.00,weatherlink.com 1.10,2013-02-27 04:56:00,
2013-02-26 23:11:00,22.3,21.0,29.95,NW,311,11.0,20.0,94,0.00,,,0.00,weatherlink.com 1.10,2013-02-27 05:11:00,
2013-02-26 23:26:00,22.0,21.0,29.95,NNW,331,13.0,22.0,94,0.00,,,0.00,weatherlink.com 1.10,2013-02-27 05:26:00,
2013-02-26 23:41:00,21.6,20.0,29.95,ENE,57,14.0,20.0,94,0.00,,,0.00,weatherlink.com 1.10,2013-02-27 05:41:00,
2013-02-26 23:56:00,21.5,20.0,29.95,NNW,331,15.0,20.0,94,0.00,,,0.00,weatherlink.com 1.10,2013-02-27 05:56:00,